DW7473 Weather Reports


Display with metric or nautical units.
time (UTC)temp
F
wind
direction
speed
MPH
gust
MPH
rain 1hr
in
rain 24hr
in
rain mn
in
humidity
%
barometer
mb
20180427005936 60 278 0.0 2.0 0.00 0.00 0.00 59 1012.2
20180427004432 60 278 0.0 1.0 0.00 0.00 0.00 58 1012.0
20180427002934 61 278 0.0 2.0 0.00 0.00 0.00 56 1011.9
20180427001429 62 278 1.0 5.0 0.00 0.00 0.00 53 1011.7
20180426235931 63 273 0.0 5.0 0.00 0.00 0.00 53 1011.6
20180426234428 64 260 1.0 5.0 0.00 0.00 0.00 51 1011.5
20180426232927 64 288 2.0 6.0 0.00 0.00 0.00 50 1011.3
20180426231425 65 286 3.0 8.0 0.00 0.00 0.00 49 1011.1
20180426225923 66 295 3.0 7.0 0.00 0.00 0.00 48 1011.0
20180426224421 66 291 2.0 7.0 0.00 0.00 0.00 47 1010.8
20180426222920 68 302 3.0 6.0 0.00 0.00 0.00 46 1010.8
20180426221418 68 272 4.0 11.0 0.00 0.00 0.00 46 1010.6
20180426215917 67 345 3.0 9.0 0.00 0.00 0.00 47 1010.5
20180426214419 68 301 5.0 9.0 0.00 0.00 0.00 46 1010.4
20180426212914 66 263 6.0 12.0 0.00 0.00 0.00 47 1010.2
20180426211413 68 26 0.0 8.0 0.00 0.00 0.00 49 1010.1
20180426205912 67 315 6.0 15.0 0.00 0.00 0.00 48 1010.0
20180426204412 67 292 6.0 11.0 0.00 0.00 0.00 47 1009.9
20180426202908 66 316 7.0 16.0 0.00 0.00 0.00 49 1009.9
20180426201410 65 264 6.0 14.0 0.00 0.00 0.00 51 1009.9
20180426195909 66 295 4.0 15.0 0.00 0.00 0.00 49 1009.9
20180426194407 66 327 4.0 13.0 0.00 0.00 0.00 49 1010.0
20180426192906 66 306 4.0 11.0 0.00 0.00 0.00 49 1010.0
20180426191403 64 331 7.0 17.0 0.00 0.00 0.00 52 1009.8
20180426185903 65 326 7.0 15.0 0.00 0.00 0.00 51 1009.9
20180426184400 64 318 6.0 12.0 0.00 0.00 0.00 53 1009.9
20180426182900 63 284 6.0 16.0 0.00 0.00 0.00 55 1009.7
20180426181400 63 323 6.0 15.0 0.00 0.00 0.00 55 1009.9
20180426175859 63 294 6.0 17.0 0.00 0.00 0.00 54 1009.8
20180426174359 62 292 11.0 21.0 0.00 0.00 0.00 54 1009.6
20180426172855 62 320 5.0 15.0 0.00 0.00 0.00 55 1009.6
20180426171355 62 324 6.0 15.0 0.00 0.00 0.00 57 1009.5
20180426165855 62 355 3.0 16.0 0.00 0.00 0.00 58 1009.4
20180426164350 61 311 10.0 14.0 0.00 0.00 0.00 56 1009.4
20180426162849 61 321 4.0 9.0 0.00 0.00 0.00 59 1009.5
20180426161348 60 355 4.0 17.0 0.00 0.00 0.00 62 1009.6
20180426155846 59 355 4.0 14.0 0.00 0.00 0.00 60 1009.8
20180426154347 58 292 5.0 13.0 0.00 0.00 0.00 63 1009.7
20180426152847 57 322 9.0 19.0 0.00 0.00 0.00 60 1009.5
20180426151342 56 344 10.0 19.0 0.00 0.00 0.00 63 1009.5
20180426145843 56 311 12.0 20.0 0.00 0.00 0.00 63 1009.5
20180426144343 56 321 9.0 17.0 0.00 0.00 0.00 63 1009.3
20180426142837 55 338 10.0 16.0 0.00 0.00 0.00 65 1009.2
20180426141335 55 292 6.0 13.0 0.00 0.00 0.00 66 1009.5
20180426135831 55 300 5.0 17.0 0.00 0.00 0.00 68 1009.3
20180426134330 55 284 7.0 14.0 0.00 0.00 0.00 66 1009.3
20180426132823 54 325 9.0 17.0 0.00 0.00 0.00 68 1009.1
20180426131320 54 318 5.0 15.0 0.00 0.00 0.00 70 1008.8
20180426125815 53 328 12.0 22.0 0.00 0.00 0.00 69 1008.8
20180426124311 53 348 10.0 19.0 0.00 0.00 0.00 70 1008.7
20180426122809 52 350 6.0 16.0 0.00 0.00 0.00 72 1008.6
20180426121302 52 315 7.0 20.0 0.00 0.00 0.00 72 1008.4
20180426115757 51 318 5.0 19.0 0.00 0.00 0.00 74 1008.3
20180426114253 51 346 7.0 16.0 0.00 0.00 0.00 74 1008.2
20180426112749 51 308 4.0 15.0 0.00 0.00 0.00 76 1008.0
20180426111246 51 332 8.0 17.0 0.00 0.00 0.00 77 1008.0
20180426105743 51 335 8.0 14.0 0.00 0.00 0.00 78 1007.8
20180426104235 52 286 3.0 15.0 0.00 0.00 0.00 79 1007.5
20180426102731 52 323 9.0 15.0 0.00 0.00 0.00 79 1007.0
20180426101231 53 294 6.0 12.0 0.00 0.00 0.00 82 1006.8
20180426095724 54 271 7.0 15.0 0.00 0.00 0.00 82 1006.3
20180426094222 55 277 5.0 16.0 0.00 0.00 0.00 84 1006.0
20180426092719 56 299 4.0 10.0 0.00 0.00 0.00 85 1005.8
20180426091218 56 306 4.0 9.0 0.00 0.00 0.00 85 1005.7
20180426084210 56 325 2.0 10.0 0.00 0.00 0.00 88 1005.0
20180426082706 57 19 5.0 11.0 0.00 0.00 0.00 87 1005.1
20180426081204 57 332 7.0 12.0 0.00 0.00 0.00 87 1005.0
20180426075702 58 334 8.0 17.0 0.00 0.00 0.00 87 1004.8
20180426074203 58 319 8.0 14.0 0.00 0.00 0.00 88 1004.5
20180426072659 58 313 3.0 15.0 0.00 0.00 0.00 90 1004.5
20180426071155 58 338 5.0 9.0 0.00 0.00 0.00 91 1004.2
20180426065653 58 303 3.0 9.0 0.00 0.00 0.00 92 1004.2
20180426064151 58 334 5.0 11.0 0.00 0.00 0.00 92 1004.1
20180426062648 58 331 3.0 7.0 0.00 0.00 0.00 93 1004.2
20180426061149 58 300 2.0 7.0 0.00 0.00 0.00 94 1004.4
20180426055647 58 321 7.0 13.0 0.00 0.00 0.00 94 1004.5
20180426054144 59 266 1.0 8.0 0.00 0.00 0.00 94 1004.5
20180426052643 59 288 6.0 9.0 0.00 0.00 0.00 95 1004.3
20180426051142 59 228 2.0 6.0 0.00 0.00 0.00 96 1004.4
20180426045640 59 311 3.0 6.0 0.00 0.00 0.00 97 1004.4
20180426044139 58 294 0.0 3.0 0.00 0.00 0.00 97 1004.4
20180426042640 59 302 1.0 4.0 0.00 0.00 0.00 98 1004.6
20180426041137 59 294 0.0 3.0 0.00 0.00 0.00 98 1004.6
20180426035637 59 327 0.0 2.0 0.00 0.00 0.00 98 1004.9
20180426034139 58 24 0.0 2.0 0.00 0.00 0.00 98 1004.8
20180426032636 58 29 0.0 1.0 0.00 0.00 0.00 98 1005.1
20180426031133 58 36 0.0 0.0 0.00 0.00 0.00 98 1005.4
20180426025631 58 36 0.0 0.0 0.00 0.02 0.00 98 1005.5
20180426024132 58 36 0.0 0.0 0.00 0.02 0.00 98 1005.5
20180426022632 58 36 0.0 0.0 0.00 0.02 0.00 98 1005.6
20180426021134 58 36 0.0 0.0 0.00 0.02 0.00 98 1005.6
20180426015630 58 36 0.0 0.0 0.00 0.02 0.00 98 1005.7
20180426014131 58 36 0.0 0.0 0.00 0.02 0.00 98 1005.7
20180426012629 59 36 0.0 1.0 0.00 0.02 0.00 98 1005.5
20180426011129 59 28 0.0 1.0 0.00 0.02 0.00 98 1005.6